C/2019 Y1 ( ATLAS )

Japanese version
Home page
Updated on January 25, 2020

---------------------------------------------------------------------

* Profile

Discovery Date December 16, 2019
Magnitude 17.9 mag
Discoverer Asteroid Terrestrial-Impact Last Alert System (ATLAS) search program

* Pictures

* Orbital Elements

Epoch 2020 Mar. 12.0 TT = JDT 2458920.5
T 2020 Mar. 15.59895 TT                                 Williams
q   0.8315790            (2000.0)            P               Q
z  +0.0115111      Peri.   57.97736     +0.32429191     -0.80263634
 +/-0.0005231      Node    31.51939     +0.12248349     -0.48912653
e   0.9904276      Incl.   73.25127     +0.93799390     +0.34136511
From 121 observations 2019 Dec. 16-2020 Jan. 6, mean residual 0".6.

* Finding Charts

* Magnitudes Graph

        m1 = 11.0 + 5 log d + 10.0 log r

---------------------------------------------------------------------

The orbital elements are published on M.P.E.C. 2020-A105.
The charts are made with StellaNavigator Ver.10 (AstroArts).
The magnitudes graphs are made with Comet for Windows.

---------------------------------------------------------------------

Copyright(C) Seiichi Yoshida (comet@aerith.net). All rights reserved.